TimeEST,TemperatureF,Dew PointF,Humidity,Sea Level PressureIn,VisibilityMPH,Wind Direction,Wind SpeedMPH,Gust SpeedMPH,PrecipitationIn,Events,Conditions,WindDirDegrees,DateUTC
12:36 AM,53.6,35.6,51,30.36,10.0,Calm,Calm,-,N/A,,Overcast,0,2013-01-11 05:36:00
12:53 AM,50.0,39.9,68,30.34,8.0,Calm,Calm,-,0.01,Rain,Light Rain,0,2013-01-11 05:53:00
1:13 AM,48.2,42.8,82,30.37,3.0,Calm,Calm,-,0.02,Rain,Light Rain,0,2013-01-11 06:13:00
1:53 AM,46.9,44.1,90,30.32,3.0,Calm,Calm,-,0.04,Rain,Light Rain,0,2013-01-11 06:53:00
2:17 AM,46.4,44.6,93,30.34,2.5,North,4.6,-,0.00,Rain,Light Rain,10,2013-01-11 07:17:00
2:33 AM,46.4,44.6,93,30.34,3.0,North,5.8,-,0.01,Rain,Light Rain,10,2013-01-11 07:33:00
2:53 AM,46.0,45.0,96,30.30,2.5,NNE,4.6,-,0.01,Rain,Light Rain,20,2013-01-11 07:53:00
3:53 AM,46.9,45.0,93,30.28,2.0,NE,3.5,-,0.01,Rain,Light Rain,40,2013-01-11 08:53:00
4:32 AM,46.4,44.6,93,30.29,1.8,ENE,5.8,-,0.01,Rain,Light Rain,60,2013-01-11 09:32:00
4:53 AM,46.9,45.0,93,30.28,1.5,North,4.6,-,0.01,,Overcast,360,2013-01-11 09:53:00
5:53 AM,46.9,45.0,93,30.25,1.5,ENE,5.8,-,0.00,,Overcast,70,2013-01-11 10:53:00
6:53 AM,46.0,45.0,96,30.26,1.5,East,4.6,-,0.01,,Overcast,80,2013-01-11 11:53:00
7:53 AM,46.0,44.1,93,30.27,1.8,NE,9.2,-,0.01,Rain,Light Rain,50,2013-01-11 12:53:00
8:21 AM,46.4,44.6,93,30.30,2.5,ENE,6.9,-,0.03,Rain,Light Rain,60,2013-01-11 13:21:00
8:37 AM,44.6,44.6,100,30.30,3.0,NNE,5.8,-,0.04,Rain,Light Rain,30,2013-01-11 13:37:00
8:45 AM,44.6,44.6,100,30.32,2.5,North,5.8,-,0.04,Rain,Light Rain,10,2013-01-11 13:45:00
8:53 AM,45.0,44.1,97,30.28,2.0,NE,8.1,-,0.05,Rain,Light Rain,40,2013-01-11 13:53:00
9:06 AM,44.6,42.8,93,30.31,5.0,ENE,6.9,-,0.00,Rain,Light Rain,60,2013-01-11 14:06:00
9:35 AM,44.6,42.8,93,30.31,2.0,NNE,6.9,-,0.00,Rain,Light Rain,30,2013-01-11 14:35:00
9:46 AM,44.6,42.8,93,30.31,1.5,ENE,9.2,-,0.01,Rain,Light Rain,60,2013-01-11 14:46:00
9:53 AM,45.0,43.0,93,30.28,1.8,ENE,10.4,-,0.01,Rain,Light Rain,60,2013-01-11 14:53:00
10:01 AM,44.6,42.8,93,30.31,2.0,NE,8.1,-,0.00,Rain,Light Rain,50,2013-01-11 15:01:00
10:11 AM,44.6,42.8,93,30.31,1.8,ENE,8.1,-,0.01,Rain,Light Rain,60,2013-01-11 15:11:00
10:36 AM,44.6,42.8,93,30.31,2.5,NE,5.8,-,0.02,Rain,Light Rain,40,2013-01-11 15:36:00
10:53 AM,45.0,43.0,93,30.27,2.0,NNE,4.6,-,0.04,Rain,Light Rain,30,2013-01-11 15:53:00
11:02 AM,44.6,42.8,93,30.30,4.0,NE,5.8,-,0.00,Rain,Light Rain,40,2013-01-11 16:02:00
11:09 AM,44.6,42.8,93,30.30,5.0,NNE,4.6,-,0.00,Rain,Light Rain,30,2013-01-11 16:09:00
11:53 AM,45.0,43.0,93,30.24,5.0,NE,4.6,-,0.00,,Overcast,40,2013-01-11 16:53:00
12:04 PM,44.6,42.8,93,30.25,4.0,ENE,3.5,-,N/A,,Overcast,60,2013-01-11 17:04:00
12:09 PM,46.4,42.8,87,30.24,2.5,NE,3.5,-,N/A,,Overcast,50,2013-01-11 17:09:00
12:24 PM,44.6,42.8,93,30.24,4.0,NNE,4.6,-,N/A,,Overcast,20,2013-01-11 17:24:00
12:40 PM,44.6,42.8,93,30.23,4.0,NE,4.6,-,N/A,,Overcast,50,2013-01-11 17:40:00
12:53 PM,45.0,43.0,93,30.20,2.0,NE,3.5,-,N/A,,Overcast,50,2013-01-11 17:53:00
1:01 PM,44.6,42.8,93,30.22,1.8,NE,3.5,-,0.01,,Overcast,40,2013-01-11 18:01:00
1:32 PM,44.6,42.8,93,30.21,2.5,NE,3.5,-,0.01,,Overcast,40,2013-01-11 18:32:00
1:53 PM,46.0,44.1,93,30.18,2.0,NE,3.5,-,0.01,,Overcast,40,2013-01-11 18:53:00
2:08 PM,46.4,44.6,93,30.21,1.8,NNE,3.5,-,N/A,,Overcast,20,2013-01-11 19:08:00
2:20 PM,46.4,44.6,93,30.21,3.0,Calm,Calm,-,N/A,,Overcast,0,2013-01-11 19:20:00
2:32 PM,46.4,44.6,93,30.21,2.5,Calm,Calm,-,N/A,,Overcast,0,2013-01-11 19:32:00
2:45 PM,46.4,44.6,93,30.19,4.0,Calm,Calm,-,N/A,,Overcast,0,2013-01-11 19:45:00
3:27 PM,46.4,44.6,93,30.18,4.0,Calm,Calm,-,0.01,,Overcast,0,2013-01-11 20:27:00
3:48 PM,46.4,44.6,93,30.19,5.0,Calm,Calm,-,0.01,,Overcast,0,2013-01-11 20:48:00
3:53 PM,46.9,45.0,93,30.16,5.0,Calm,Calm,-,0.01,,Overcast,0,2013-01-11 20:53:00
4:53 PM,46.9,46.0,97,30.15,2.5,Calm,Calm,-,N/A,,Overcast,0,2013-01-11 21:53:00
5:50 PM,46.4,44.6,93,30.16,3.0,Calm,Calm,-,N/A,,Overcast,0,2013-01-11 22:50:00
5:53 PM,46.9,45.0,93,30.14,3.0,Calm,Calm,-,N/A,,Overcast,0,2013-01-11 22:53:00
6:01 PM,46.4,44.6,93,30.17,2.5,Calm,Calm,-,N/A,,Overcast,0,2013-01-11 23:01:00
6:26 PM,46.4,44.6,93,30.19,2.5,Calm,Calm,-,N/A,,Overcast,0,2013-01-11 23:26:00
6:41 PM,46.4,44.6,93,30.19,2.5,Calm,Calm,-,0.00,Rain,Light Rain,0,2013-01-11 23:41:00
6:51 PM,46.4,44.6,93,30.19,2.5,Calm,Calm,-,0.00,Rain,Light Rain,0,2013-01-11 23:51:00
6:53 PM,46.9,45.0,93,30.17,2.5,Calm,Calm,-,0.00,Rain,Light Rain,0,2013-01-11 23:53:00
7:09 PM,46.4,44.6,93,30.20,2.5,Calm,Calm,-,0.00,,Overcast,0,2013-01-12 00:09:00
7:21 PM,46.4,44.6,93,30.19,1.5,Calm,Calm,-,0.00,,Overcast,0,2013-01-12 00:21:00
7:53 PM,46.9,46.0,97,30.17,1.8,Calm,Calm,-,0.00,,Overcast,0,2013-01-12 00:53:00
8:10 PM,46.4,46.4,100,30.18,0.8,Calm,Calm,-,N/A,,Mist,0,2013-01-12 01:10:00
8:17 PM,46.4,46.4,100,30.18,1.0,Calm,Calm,-,N/A,,Mist,0,2013-01-12 01:17:00
8:40 PM,46.4,44.6,93,30.18,0.5,Calm,Calm,-,N/A,Fog,Fog,0,2013-01-12 01:40:00
8:48 PM,46.4,46.4,100,30.18,0.2,Calm,Calm,-,N/A,Fog,Fog,0,2013-01-12 01:48:00
8:53 PM,46.9,46.0,97,30.15,0.5,Calm,Calm,-,N/A,Fog,Fog,0,2013-01-12 01:53:00
9:20 PM,46.4,46.4,100,30.18,0.8,Calm,Calm,-,N/A,,Mist,0,2013-01-12 02:20:00
9:28 PM,46.4,46.4,100,30.18,1.5,Calm,Calm,-,N/A,,Overcast,0,2013-01-12 02:28:00
9:41 PM,46.4,46.4,100,30.17,2.5,Calm,Calm,-,N/A,,Overcast,0,2013-01-12 02:41:00
9:53 PM,46.9,46.0,97,30.15,2.5,Calm,Calm,-,N/A,,Overcast,0,2013-01-12 02:53:00
10:25 PM,46.4,46.4,100,30.18,3.0,Calm,Calm,-,N/A,,Overcast,0,2013-01-12 03:25:00
10:53 PM,48.0,46.0,93,30.15,5.0,Calm,Calm,-,N/A,,Overcast,0,2013-01-12 03:53:00
11:28 PM,48.2,46.4,93,30.16,3.0,Calm,Calm,-,N/A,,Overcast,0,2013-01-12 04:28:00
11:53 PM,48.0,46.9,96,30.14,4.0,WNW,3.5,-,N/A,,Overcast,300,2013-01-12 04:53:00